Location: Beetenbrück
(52.8113°N, 9.5946°E)
Time: 22:11:35
(UTC+00:00)

Cosmos 1862 - Pass Details

Date: 14 April 2026
Orbit: 465 x 478 km, 82.5° (Epoch: 12 May)

Event Time Altitude Azimuth Distance (km) Brightness Sun altitude
Rises 21:55:56 0° 347° (NNW) 2,549 8.0 -24.9°
Reaches altitude 10° 21:58:03 10° 345° (NNW) 1,662 6.8 -25.0°
Enters shadow 22:00:41 45° 332° (NNW) 668 4.1 -25.2°
